Change the Weather History Date:

Monday, May 14, 2012

  Actual Average Record
Temperature  
Mean Temperature 62 °F -  
Max Temperature 68 °F 62 °F 81 °F (2004)
Min Temperature 57 °F 40 °F 30 °F (1998)
Degree Days  
Heating Degree Days 2    
Growing Degree Days 12 (Base 50)    
Moisture  
Dew Point 56 °F    
Average Humidity 82    
Maximum Humidity 90    
Minimum Humidity 68    
Precipitation  
Precipitation 0.55 in - - ()
Sea Level Pressure  
Sea Level Pressure 30.16 in    
Wind  
Wind Speed 2 mph (South)    
Max Wind Speed 12 mph    
Max Gust Speed -    
Visibility 8 miles    
Events Rain    
Averages and records for this station are not official NWS values.
T = Trace of Precipitation, MM = Missing Value Source: NWS Daily Summary

Daily Weather History Graph

Daily Weather History Graph

Search for Another Location

Airport or City:

Trip Planner

Search our weather history database for the weather conditions in past years. The results will help you decide how hot, cold, wet, or windy it might be!

Date:

Astronomy

May. 14, 2012 Rise Set
Actual Time 5:25 AM EDT 8:03 PM EDT
Civil Twilight 4:53 AM EDT 8:35 PM EDT
Nautical Twilight 4:12 AM EDT 9:16 PM EDT
Astronomical Twilight 3:26 AM EDT 10:03 PM EDT
Moon 2:07 AM EDT (5/14) 2:13 PM EDT (5/14)
Length of Visible Light 15h 42m
Length of Day
14h 37m
Waning Crescent, 33% of the Moon is Illuminated
May 14
Waning Crescent
May 20
New
May 28
First Quarter
Jun 4
Full
Jun 11
Last Quarter

Hourly Weather History & Observations

Time (EDT) Temp. Dew Point Humidity Pressure Visibility Wind Dir Wind Speed Gust Speed Precip Events Conditions
12:52 AM 57.9 °F 51.1 °F 78% 30.14 in 10.0 mi Calm Calm - N/A   Clear
1:52 AM 57.9 °F 51.1 °F 78% 30.13 in 10.0 mi Calm Calm - N/A   Mostly Cloudy
2:52 AM 60.1 °F 51.1 °F 72% 30.12 in 10.0 mi Calm Calm - N/A   Overcast
3:52 AM 59.0 °F 48.9 °F 69% 30.12 in 10.0 mi Calm Calm - N/A   Overcast
4:52 AM 59.0 °F 48.9 °F 69% 30.13 in 10.0 mi Calm Calm - N/A   Overcast
5:52 AM 57.9 °F 50.0 °F 75% 30.14 in 10.0 mi Calm Calm - N/A   Overcast
6:52 AM 57.9 °F 51.1 °F 78% 30.18 in 10.0 mi South 3.5 mph - 0.00 in   Overcast
7:52 AM 57.9 °F 53.1 °F 84% 30.20 in 5.0 mi Calm Calm - 0.01 in Rain Light Rain
8:52 AM 57.9 °F 53.1 °F 84% 30.19 in 7.0 mi NNE 3.5 mph - 0.03 in Rain Light Rain
9:52 AM 59.0 °F 53.1 °F 81% 30.19 in 9.0 mi Calm Calm - 0.01 in Rain Light Rain
10:24 AM 59.0 °F 53.6 °F 82% 30.18 in 9.0 mi Calm Calm - 0.00 in Rain Light Rain
10:45 AM 60.8 °F 55.4 °F 82% 30.17 in 9.0 mi Calm Calm - 0.01 in   Overcast
10:52 AM 60.1 °F 54.0 °F 80% 30.18 in 10.0 mi Variable 3.5 mph - 0.01 in   Overcast
11:27 AM 60.8 °F 55.4 °F 82% 30.17 in 10.0 mi Calm Calm - N/A   Overcast
11:52 AM 63.0 °F 55.0 °F 75% 30.18 in 10.0 mi Calm Calm - N/A   Overcast
12:52 PM 64.9 °F 57.0 °F 75% 30.17 in 10.0 mi Calm Calm - 0.00 in Rain Light Rain
1:07 PM 64.4 °F 57.2 °F 77% 30.17 in 10.0 mi Calm Calm - 0.00 in   Overcast
1:48 PM 66.2 °F 57.2 °F 73% 30.15 in 10.0 mi Calm Calm - 0.00 in   Mostly Cloudy
1:52 PM 68.0 °F 57.9 °F 70% 30.17 in 10.0 mi Calm Calm - 0.00 in   Mostly Cloudy
2:52 PM 66.9 °F 55.9 °F 68% 30.15 in 10.0 mi SE 3.5 mph - 0.00 in Rain Light Rain
3:23 PM 66.2 °F 59.0 °F 78% 30.14 in 10.0 mi Calm Calm - 0.00 in Rain Light Rain
3:31 PM 64.4 °F 57.2 °F 77% 30.15 in 1.8 mi South 11.5 mph - 0.12 in Rain Heavy Rain
3:34 PM 62.6 °F 57.2 °F 82% 30.15 in 1.2 mi South 8.1 mph - 0.15 in Rain Heavy Rain
3:42 PM 62.6 °F 57.2 °F 82% 30.15 in 2.0 mi South 5.8 mph - 0.18 in Rain Rain
3:52 PM 63.0 °F 57.9 °F 84% 30.16 in 2.0 mi SSE 8.1 mph - 0.21 in Rain Rain
4:02 PM 62.6 °F 59.0 °F 88% 30.14 in 6.0 mi SSE 6.9 mph - 0.00 in Rain Light Rain
4:13 PM 62.6 °F 57.2 °F 82% 30.14 in 10.0 mi Variable 3.5 mph - 0.00 in Rain Light Rain
4:20 PM 62.6 °F 57.2 °F 82% 30.14 in 10.0 mi SSE 3.5 mph - 0.00 in   Overcast
4:52 PM 64.9 °F 57.9 °F 78% 30.15 in 10.0 mi South 5.8 mph - 0.00 in   Overcast
5:13 PM 64.4 °F 59.0 °F 83% 30.13 in 10.0 mi South 6.9 mph - N/A   Overcast
5:45 PM 64.4 °F 60.8 °F 88% 30.14 in 9.0 mi South 4.6 mph - N/A   Overcast
5:52 PM 64.9 °F 60.1 °F 84% 30.15 in 9.0 mi South 5.8 mph - N/A   Overcast
6:52 PM 64.0 °F 59.0 °F 84% 30.16 in 7.0 mi South 5.8 mph - 0.00 in Rain Light Rain
7:52 PM 63.0 °F 60.1 °F 90% 30.16 in 2.5 mi South 4.6 mph - 0.05 in Rain Light Rain
8:10 PM 62.6 °F 57.2 °F 82% 30.15 in 3.0 mi SSW 4.6 mph - 0.08 in Rain Rain
8:52 PM 61.0 °F 57.0 °F 87% 30.18 in 7.0 mi South 6.9 mph - 0.13 in Rain Light Rain
9:05 PM 60.8 °F 57.2 °F 88% 30.17 in 6.0 mi South 4.6 mph - 0.02 in Rain Light Rain
9:13 PM 60.8 °F 57.2 °F 88% 30.17 in 6.0 mi South 4.6 mph - 0.02 in Rain Light Rain
9:21 PM 60.8 °F 57.2 °F 88% 30.17 in 6.0 mi South 3.5 mph - 0.03 in Rain Light Rain
9:38 PM 60.8 °F 57.2 °F 88% 30.17 in 8.0 mi Calm Calm - 0.05 in Rain Light Rain
9:48 PM 60.8 °F 57.2 °F 88% 30.17 in 7.0 mi South 4.6 mph - 0.06 in Rain Light Rain
9:52 PM 61.0 °F 57.0 °F 87% 30.18 in 7.0 mi South 3.5 mph - 0.06 in Rain Light Rain
10:04 PM 60.8 °F 57.2 °F 88% 30.17 in 9.0 mi South 3.5 mph - 0.00 in Rain Light Rain
10:29 PM 60.8 °F 57.2 °F 88% 30.16 in 9.0 mi South 3.5 mph - 0.01 in Rain Light Rain
10:52 PM 61.0 °F 57.0 °F 87% 30.17 in 6.0 mi South 3.5 mph - 0.02 in Rain Light Rain
11:03 PM 60.8 °F 57.2 °F 88% 30.16 in 2.5 mi Calm Calm - 0.01 in Rain Light Rain
11:09 PM 60.8 °F 57.2 °F 88% 30.16 in 3.0 mi Calm Calm - 0.02 in Rain Light Rain
11:52 PM 61.0 °F 57.0 °F 87% 30.17 in 7.0 mi South 4.6 mph - 0.02 in Rain Light Rain